This demonstration page uses our WeatherBlox Daily Observations layout. Learn more.

Left ArrowRight Arrow

Hourly Observations for May 26, 2020

Temp ( °F °C ) Dew Point ( °F °C ) Humidity (%) Winds ( mph kmh ) Pressure ( in mb ) Visibility ( mi km ) Precip ( " mm )
12:51 am 00:51 Clear 69 20.6 17 -8.3 14 14 NNW 9 15 29.76 1008 10 16.0934 0 0
1:51 am 01:51 Clear 65 18.3 17 -8.3 16 16 W 7 11 29.76 1008 10 16.0934 0 0
2:51 am 02:51 Clear 59 15 16 -8.9 18 18 VRB 6 9 29.79 1009 10 16.0934 0 0
3:51 am 03:51 Clear 62 16.7 18 -7.8 18 18 E 7 11 29.81 1010 10 16.0934 0 0
4:51 am 04:51 Clear 68 20 26 -3.3 21 21 E 9 15 29.83 1010 10 16.0934 0 0
5:51 am 05:51 Sunny 67 19.4 30 -1.1 25 25 SE 9 15 29.85 1011 10 16.0934 0 0
6:51 am 06:51 Sunny 72 22.2 36 2.2 27 27 ESE 10 17 29.86 1011 10 16.0934 0 0
7:51 am 07:51 Sunny 73 22.8 37 2.8 27 27 SSE 8 13 29.88 1012 10 16.0934 0 0
8:51 am 08:51 Sunny 78 25.6 42 5.6 28 28 VRB 7 11 29.88 1012 10 16.0934 0 0
9:51 am 09:51 Sunny 81 27.2 43 6.1 26 26 SSE 9 15 29.86 1011 10 16.0934 0 0
10:51 am 10:51 Sunny 84 28.9 42 5.6 23 23 SE 7 11 29.85 1011 10 16.0934 0 0
11:51 am 11:51 Sunny 87 30.6 34 1.1 15 15 VRB 6 9 29.83 1010 10 16.0934 0 0
12:51 pm 12:51 Sunny 89 31.7 28 -2.2 11 11 E 9 15 29.8 1009 10 16.0934 0 0
1:51 pm 13:51 Sunny 90 32.2 27 -2.8 10 10 VRB 3 6 29.78 1008 10 16.0934 0 0
2:51 pm 14:51 Sunny 94 34.4 23 -5 8 8 WSW 8 13 29.75 1008 10 16.0934 0 0
3:51 pm 15:51 Sunny 94 34.4 20 -6.7 7 7 VRB 6 9 29.73 1007 10 16.0934 0 0
4:51 pm 16:51 Sunny 94 34.4 23 -5 8 8 WNW 13 20 29.71 1006 10 16.0934 0 0
5:51 pm 17:51 Sunny 94 34.4 24 -4.4 8 8 W 13 20 29.69 1006 10 16.0934 0 0
6:51 pm 18:51 Sunny 91 32.8 25 -3.9 9 9 NW 14 22 29.7 1006 10 16.0934 0 0
7:51 pm 19:51 Clear 86 30 21 -6.1 9 9 NW 9 15 29.72 1006 10 16.0934 0 0
8:51 pm 20:51 Clear 81 27.2 22 -5.6 11 11 W 12 19 29.74 1007 10 16.0934 0 0
9:51 pm 21:51 Clear 80 26.7 22 -5.6 11 11 NW 10 17 29.76 1008 10 16.0934 0 0
10:51 pm 22:51 Clear 77 25 22 -5.6 13 13 WNW 10 17 29.77 1008 10 16.0934 0 0
11:51 pm 23:51 Clear 70 21.1 20 -6.7 15 15 NW 7 11 29.78 1008 10 16.0934 0 0

Powered by AerisWeather